KV5W Weather Reports


time (UTC)temp
C
wind
direction
speed
KPH
gust
KPH
rain 1hr
cm
rain 24hr
cm
rain mn
cm
humidity
%
barometer
mb
20260509201512 31 16 1.6 4.8 0.00 0.00 0.00 58 1009.2
20260509200016 30 51 0.0 3.2 0.00 0.00 0.00 59 1009.4
20260509194524 30 92 0.0 4.8 0.00 0.00 0.00 56 1009.6
20260509193031 32 249 0.0 3.2 0.00 0.00 0.00 57 1009.9
20260509191512 31 5 1.6 9.7 0.00 0.00 0.00 59 1010.0
20260509190015 30 87 0.0 3.2 0.00 0.00 0.00 60 1010.0
20260509184526 30 293 0.0 6.4 0.00 0.00 0.00 58 1010.1
20260509183024 31 325 0.0 3.2 0.00 0.00 0.00 60 1010.1
20260509181531 30 28 0.0 3.2 0.00 0.00 0.00 60 1010.4
20260509180011 29 333 0.0 3.2 0.00 0.00 0.00 65 1010.4
20260509174522 28 105 1.6 4.8 0.00 0.00 0.00 69 1010.7
20260509173024 27 71 0.0 4.8 0.00 0.00 0.00 70 1010.9
20260509171525 28 249 0.0 3.2 0.00 0.00 0.00 69 1011.0
20260509170028 27 61 0.0 3.2 0.00 0.00 0.00 69 1010.8
20260509164515 28 108 0.0 3.2 0.00 0.00 0.00 70 1011.1
20260509163023 27 47 0.0 3.2 0.00 0.00 0.00 74 1011.0
20260509161530 26 338 0.0 3.2 0.00 0.00 0.00 76 1010.8
20260509160028 26 71 1.6 3.2 0.00 0.00 0.00 79 1010.8
20260509154519 25 197 0.0 3.2 0.00 0.00 0.00 83 1010.8
20260509153029 23 103 1.6 4.8 0.00 0.00 0.00 88 1010.7
20260509151524 22 52 0.0 1.6 0.00 0.00 0.00 90 1010.6
20260509150029 22 58 0.0 0.0 0.00 0.00 0.00 89 1010.9
20260509144533 22 159 0.0 0.0 0.00 0.00 0.00 89 1011.0
20260509143016 22 41 0.0 0.0 0.00 0.00 0.00 88 1011.2
20260509141520 22 38 0.0 0.0 0.00 0.00 0.00 88 1011.2
20260509140025 22 53 0.0 0.0 0.00 0.00 0.00 89 1011.1
20260509134527 22 51 0.0 0.0 0.00 0.00 0.00 91 1010.9
20260509133030 21 18 0.0 0.0 0.00 0.00 0.00 91 1010.8
20260509131522 21 310 0.0 0.0 0.00 0.00 0.00 91 1011.0
20260509130006 21 262 0.0 0.0 0.00 0.00 0.00 92 1011.0
20260509124506 21 205 0.0 0.0 0.00 0.00 0.00 92 1010.9
20260509123011 21 194 0.0 0.0 0.00 0.00 0.00 92 1010.9
20260509121522 21 194 0.0 4.8 0.00 0.00 0.00 91 1010.6
20260509120032 21 52 0.0 3.2 0.00 0.00 0.00 91 1010.4
20260509114507 21 41 0.0 6.4 0.00 0.00 0.00 91 1010.3
20260509113012 20 169 1.6 6.4 0.00 0.00 0.00 91 1010.1
20260509111516 20 116 0.0 3.2 0.00 0.00 0.00 91 1009.8
20260509110029 20 72 0.0 3.2 0.00 0.00 0.00 91 1009.2
20260509104522 20 80 1.6 6.4 0.00 0.00 0.00 91 1009.4
20260509103010 20 128 1.6 4.8 0.00 0.00 0.00 91 1009.5
20260509101512 20 87 0.0 3.2 0.00 0.00 0.00 91 1009.6
20260509100023 20 61 0.0 0.0 0.00 0.00 0.00 91 1009.8
20260509094524 20 89 0.0 0.0 0.00 0.00 0.00 90 1010.0
20260509091512 20 175 0.0 3.2 0.00 0.00 0.00 90 1009.9
20260509090019 20 84 0.0 3.2 0.00 0.00 0.00 90 1009.7
20260509084532 20 132 0.0 3.2 0.00 0.00 0.00 89 1009.8
20260509083034 20 51 0.0 4.8 0.00 0.00 0.00 89 1010.2
20260509081513 20 119 1.6 4.8 0.00 0.00 0.00 89 1010.4
20260509080035 20 114 0.0 3.2 0.00 0.00 0.00 88 1010.6
20260509074518 20 123 0.0 0.0 0.00 0.00 0.00 88 1011.0
20260509073022 20 134 0.0 0.0 0.00 0.00 0.00 88 1010.8
20260509071530 20 134 0.0 0.0 0.00 0.00 0.00 88 1010.9
20260509070014 20 170 0.0 0.0 0.00 0.00 0.00 87 1010.9
20260509064521 21 267 0.0 9.7 0.00 0.00 0.00 87 1010.7
20260509063023 21 111 0.0 1.6 0.00 0.00 0.00 86 1011.0
20260509061526 21 246 0.0 6.4 0.00 0.00 0.00 85 1010.8
20260509060028 21 103 1.6 3.2 0.00 0.00 0.00 85 1011.5
20260509054516 21 76 0.0 3.2 0.00 0.00 0.00 84 1011.8
20260509053022 21 108 0.0 3.2 0.00 0.00 0.00 84 1011.7
20260509051523 21 190 0.0 3.2 0.00 0.00 0.00 84 1011.5
20260509050039 21 96 0.0 4.8 0.00 0.00 0.00 84 1011.4
20260509044527 21 63 0.0 3.2 0.00 0.00 0.00 84 1011.0
20260509043018 21 143 0.0 4.8 0.00 0.00 0.00 83 1010.9
20260509041522 21 126 0.0 3.2 0.00 0.00 0.00 83 1010.8
20260509040028 21 136 0.0 4.8 0.00 0.00 0.00 82 1010.6
20260509034526 22 80 0.0 3.2 0.00 0.00 0.00 82 1010.6
20260509033020 22 104 0.0 6.4 0.00 0.00 0.00 81 1010.7
20260509031531 22 297 0.0 3.2 0.00 0.00 0.00 80 1010.4
20260509030035 22 346 0.0 3.2 0.00 0.00 0.00 80 1010.3
20260509024525 22 159 1.6 4.8 0.00 0.00 0.00 79 1010.2
20260509023036 22 137 0.0 3.2 0.00 0.00 0.00 78 1009.9
20260509021530 22 94 0.0 4.8 0.00 0.00 0.00 78 1009.5
20260509020026 22 143 0.0 3.2 0.00 0.00 0.00 77 1009.5
20260509014523 22 76 0.0 4.8 0.00 0.00 0.00 76 1009.2
20260509013026 22 105 0.0 0.0 0.00 0.00 0.00 76 1009.1
20260509011528 22 60 0.0 9.7 0.00 0.00 0.00 75 1009.0
20260509010019 23 69 0.0 6.4 0.00 0.00 0.00 73 1008.8
20260509004536 23 59 1.6 4.8 0.00 0.00 0.00 72 1009.0
20260509003028 23 140 0.0 3.2 0.00 0.00 0.00 71 1008.9
20260509001528 23 90 0.0 4.8 0.00 0.00 0.00 70 1008.7
20260509000037 24 123 0.0 4.8 0.00 0.00 0.00 69 1008.6
20260508234509 24 55 3.2 9.7 0.00 0.00 0.00 67 1008.4
20260508233012 25 111 3.2 12.9 0.00 0.00 0.00 65 1008.7
20260508231510 25 96 3.2 14.5 0.00 0.00 0.00 65 1009.0
20260508230012 25 84 0.0 3.2 0.00 0.00 0.00 64 1009.5
20260508224511 25 250 0.0 3.2 0.00 0.00 0.00 64 1010.1
20260508223012 25 92 3.2 9.7 0.00 0.00 0.00 61 1009.8
20260508221513 25 88 0.0 9.7 0.00 0.00 0.00 60 1009.8
20260508220012 26 116 1.6 4.8 0.00 0.00 0.00 59 1009.7
20260508214514 26 134 0.0 3.2 0.00 0.00 0.00 58 1010.5
20260508213022 26 134 0.0 6.4 0.00 0.00 0.00 56 1010.2
20260508211511 27 265 0.0 6.4 0.00 0.00 0.00 54 1010.2
20260508210016 26 102 3.2 8.0 0.00 0.00 0.00 57 1010.1
20260508204516 27 253 0.0 6.4 0.00 0.00 0.00 54 1010.2
20260508203018 27 344 0.0 4.8 0.00 0.00 0.00 57 1009.9